This is the latest recevied weather packets stored in our database for station/object OK1FET-5. If no packets are shown the sender has not sent any weather packets the latest 10 day(s).
| Time | Temp. | Humidity | Pressure | Rain* | Wind** | Luminosity | Snow |
|---|---|---|---|---|---|---|---|
| 1777730543 | 25.56° C | 24% | 1021.4 hPa | - | - | - | - |
| 1777730246 | 26.11° C | 23% | 1021.4 hPa | - | - | - | - |
| 1777729951 | 26.11° C | 25% | 1021.5 hPa | - | - | - | - |
| 1777729063 | 26.11° C | 24% | 1021.7 hPa | - | - | - | - |
| 1777728767 | 26.11° C | 25% | 1021.7 hPa | - | - | - | - |
| 1777727880 | 26.11° C | 25% | 1022 hPa | - | - | - | - |
| 1777727288 | 26.67° C | 25% | 1022.2 hPa | - | - | - | - |
| 1777726697 | 26.67° C | 22% | 1022.2 hPa | - | - | - | - |
| 1777725513 | 26.11° C | 26% | 1022.5 hPa | - | - | - | - |
| 1777724922 | 26.67° C | 26% | 1022.7 hPa | - | - | - | - |
| 1777724626 | 26.11° C | 23% | 1022.7 hPa | - | - | - | - |
| 1777724330 | 25.56° C | 24% | 1022.8 hPa | - | - | - | - |
| 1777724034 | 25.56° C | 22% | 1022.8 hPa | - | - | - | - |
| 1777723739 | 26.11° C | 25% | 1023 hPa | - | - | - | - |
| 1777723444 | 25.56° C | 27% | 1023 hPa | - | - | - | - |
| 1777723147 | 25.56° C | 26% | 1023.1 hPa | - | - | - | - |
| 1777722260 | 24.44° C | 26% | 1023.4 hPa | - | - | - | - |
| 1777721964 | 24.44° C | 27% | 1023.3 hPa | - | - | - | - |
| 1777721669 | 25° C | 26% | 1023.4 hPa | - | - | - | - |
| 1777721373 | 24.44° C | 25% | 1023.5 hPa | - | - | - | - |
| 1777721078 | 25° C | 28% | 1023.6 hPa | - | - | - | - |
| 1777720486 | 25° C | 27% | 1023.6 hPa | - | - | - | - |
| 1777719896 | 24.44° C | 27% | 1023.9 hPa | - | - | - | - |
| 1777719599 | 25° C | 26% | 1023.9 hPa | - | - | - | - |
| 1777719304 | 25.56° C | 31% | 1024 hPa | - | - | - | - |
* Rain since midnight (hover to see other rain measurements)
** Current wind speed in m/s (hover to see current wind gust speed)